Tracking 25744 objects as of 25-Jun-2022
HD Live streaming from Space Station
objects crossing your sky now

THOR ABLESTAR DEB

Track THOR ABLESTAR DEB now!
10-day predictions


NORAD ID: 13502
Int'l Code: 1961-015KT
Perigee: 834.4 km
Apogee: 1,250.1 km
Inclination: 66.5 °
Period: 105.9 minutes
Semi major axis: 7413 km
RCS: 0.058 m2 (small)
Launch date: June 29, 1961
Source: United States (US)
Launch site: AIR FORCE EASTERN TEST RANGE (AFETR)

Note: This is SATELLITE DEBRIS
aabbcc
Your satellite tracking list
Your tracking list is empty




NASA's NSSDC Master Catalog

Two Line Element Set (TLE):
1 13502U 61015KT  22175.76919865  .00001865  00000-0  19968-2 0  9997
2 13502  66.4614  41.6715 0280336  24.4794  41.2966 13.60154419952206
Source of the keplerian elements: AFSPC